Location: *
(45.0667°N, 3.2833°E)
Time: 09:47:54
(UTC+00:00)

Daily predictions for brighter satellites

Satellite Brightness Start Highest point End
(mag) Time Altitude Azimuth Time Altitude Azimuth Time Altitude Azimuth
Cosmos 2333 Rocket 3.0 18:26:59 10° N 18:32:07 33° NE 18:37:14 10° ESE
ARGOS 4.5 18:28:13 10° ESE 18:32:09 21° ENE 18:36:05 10° NNE
Cosmos 1536 Rocket 3.8 18:28:51 10° N 18:33:03 46° ENE 18:37:12 10° SSE
YAOGAN 1 3.6 18:34:35 10° S 18:38:47 50° W 18:43:01 10° NNW
NOSS 3-3 (A) 4.0 18:34:16 10° SSW 18:40:00 58° ESE 18:46:24 10° NE
NOSS 3-3 (C) 4.0 18:34:22 10° SSW 18:40:07 58° ESE 18:46:30 10° NE
HJ-1C 3.4 18:39:32 10° SSE 18:42:50 60° ENE 18:46:11 10° N
Cosmos 1025 Rocket 3.2 18:39:39 10° N 18:43:51 50° ENE 18:47:59 10° SSE
MOS 1 4.4 18:40:53 10° SSE 18:46:29 60° ENE 18:52:06 10° N
Aureole 1 Rocket 3.8 18:41:46 10° NNW 18:47:17 45° ENE 18:51:28 10° SE
Cosmos 2237 Rocket 3.7 18:45:27 10° N 18:49:41 21° NE 18:53:18 12° E
Cosmos 1939 Rocket 2.9 18:47:05 10° S 18:50:56 79° WSW 18:54:49 10° NNW
Cosmos 1441 Rocket 4.0 18:47:47 10° SSE 18:51:10 30° E 18:54:31 10° NNE
SJ-6B 3.6 18:48:40 10° SE 18:52:26 35° ENE 18:56:13 10° N
BREEZE-M DEB (TANK) 3.4 18:50:35 10° W 18:52:32 25° SSW 18:54:36 10° SSE
Cosmos 405 3.6 18:50:27 10° NNW 18:53:54 58° W 18:57:19 10° S
BREEZE-M DEB (TANK) 4.0 18:50:56 10° WNW 18:54:49 47° N 19:02:15 10° ENE
Cosmos 2151 Rocket 3.5 18:50:25 10° S 18:54:50 85° E 18:59:16 10° N
Cosmos 2074 Rocket 4.0 18:51:16 10° N 18:57:33 82° E 19:03:46 10° S
CZ-4C R/B 4.5 18:53:32 10° WNW 18:57:50 22° NNW 19:02:43 10° NNE
Cosmos 1544 3.5 18:55:39 10° SSE 18:59:00 38° E 19:02:22 10° NNE
H-2A R/B 2.6 18:57:11 12° SE 19:01:07 34° ENE 19:05:36 10° N
FREGAT/IRIS 2.3 18:59:12 10° SSE 19:02:00 74° ENE 19:04:48 10° N
GEOS 3 Rocket 4.3 18:58:35 10° SSE 19:03:33 52° WSW 19:08:33 10° NW
SAR-Lupe-2 3.4 19:00:15 10° NNE 19:03:50 72° ESE 19:07:24 10° S
Meteor 1-12 Rocket 4.2 19:01:15 10° S 19:06:58 69° E 19:12:38 10° NNE
Cosmos 1300 Rocket 3.9 19:03:29 10° SSW 19:07:46 68° W 19:12:05 10° N
Cosmos 2322 Rocket 4.4 19:04:10 10° NW 19:08:41 25° WSW 19:13:11 10° SSW
Cosmos 2251 Rocket 3.6 19:03:52 10° NNW 19:09:17 86° WSW 19:14:39 10° SSE
TIMED 4.5 19:05:36 10° NNW 19:10:01 89° E 19:14:23 10° SSE
Cosmos 1707 3.4 19:06:32 10° N 19:10:08 34° ENE 19:12:02 21° SE
ATLAS 2AS CENTAUR R/B 3.0 19:07:28 10° NW 19:15:12 66° NE 19:20:32 19° SE
Lacrosse 4 Rocket 3.9 19:13:02 10° WNW 19:15:59 20° WSW 19:18:56 10° SSW
SL-8 R/B 3.6 19:11:21 10° WSW 19:16:07 71° SSE 19:19:44 17° ENE
Cosmos 2333 4.2 19:10:26 10° NNW 19:16:08 88° WSW 19:21:50 10° SSE
Cosmos 2154 Rocket 3.9 19:10:06 10° N 19:16:18 69° E 19:22:28 10° SSE
SL-16 R/B 4.1 19:13:46 10° N 19:16:57 15° NE 19:19:18 12° ENE
SJ-11-01 4.3 19:13:27 10° SSE 19:18:12 86° ENE 19:22:59 10° NNW
ADEOS Rocket 3.7 19:13:14 10° NNE 19:20:08 46° E 19:27:27 10° S
COSMOS 2428 2.7 19:17:35 10° NNW 19:23:17 75° ENE 19:27:34 18° SSE
USA 186 1.9 19:23:52 14° S 19:26:37 78° WSW 19:30:03 10° NNW
Cosmos 1455 Rocket 4.4 19:28:37 22° ENE 19:28:37 22° ENE 19:31:18 10° NE
Cosmos 2322 4.3 19:22:42 10° NNW 19:28:20 59° WSW 19:33:56 10° S
CZ-2C R/B 3.6 19:29:08 27° ESE 19:31:17 39° ENE 19:36:16 10° N
Cosmos 2219 Rocket 2.1 19:26:15 10° NNW 19:31:52 85° ENE 19:35:48 20° SSE
Cosmos 1461 2.6 19:29:24 10° SSW 19:33:26 87° SE 19:37:25 10° NE
Resurs 01 Rocket 2.2 19:32:17 32° ESE 19:33:27 38° ENE 19:37:33 10° N
Cosmos 389 Rocket 3.0 19:32:47 10° N 19:35:51 38° ENE 19:35:51 38° ENE
Resurs 1-3 3.8 19:34:40 33° SE 19:36:20 52° ENE 19:40:37 10° N
BREEZE M DEB (TANK) 2.9 19:34:36 10° WNW 19:36:48 39° N 19:38:44 22° ENE
SL-8 Rocket 4.3 19:31:03 10° N 19:36:57 43° ENE 19:39:35 29° SE
Cosmos 2360 Rocket 4.1 19:36:44 10° NW 19:41:28 28° WSW 19:46:12 10° SSW
Meteor 1-4 Rocket 3.5 19:38:19 10° N 19:41:04 32° NE 19:41:04 32° NE
ASTEX 1 3.7 19:40:51 10° N 19:45:43 68° W 19:50:33 10° SSW
Okean 1 Rocket 3.4 19:41:28 10° SSW 19:45:44 63° W 19:50:05 10° N
Cosmos 2219 3.3 19:43:14 10° S 19:48:45 50° ESE 19:54:17 10° NE
Cosmos 1437 Rocket 4.5 19:47:59 10° NNE 19:49:50 20° NE 19:49:50 20° NE
Cosmos 2227 Rocket 3.5 19:55:32 23° ENE 19:55:32 23° ENE 19:58:05 10° NE
CZ-2C R/B 4.0 19:49:19 10° NE 19:52:13 22° ENE 19:52:13 22° ENE
COSMOS 2455 3.9 19:49:56 10° NW 19:55:33 41° WSW 20:00:42 12° S
Cosmos 2056 Rocket 3.7 20:00:16 46° SE 20:01:01 49° ESE 20:06:15 10° NNE
Cosmos 2297 Rocket 3.0 20:06:19 32° ENE 20:06:19 32° ENE 20:09:47 10° NE
Cosmos 405 Rocket 3.9 20:07:26 30° NNE 20:07:26 30° NNE 20:09:26 10° NNE
Meteor 1-24 Rocket 4.2 20:01:15 10° N 20:06:40 42° ENE 20:07:05 42° E
Meteor 2-17 Rocket 4.3 20:01:15 10° N 20:07:23 80° E 20:09:58 37° SSE
Cosmos 407 Rocket 3.3 20:06:12 10° NNW 20:11:22 79° ENE 20:12:11 62° SE
ARGOS 3.5 20:08:34 23° S 20:11:56 61° W 20:17:17 10° NNW
Meteor 2-5 Rocket 3.8 20:06:56 10° N 20:12:42 65° ENE 20:13:50 53° SE
Cosmos 1624 Rocket 3.9 20:13:24 62° SE 20:13:47 65° ESE 20:18:56 10° NNE
Okean 1-7 Rocket 3.6 20:11:11 10° NNW 20:15:37 77° W 20:16:14 63° SSW
MetOp-B 4.2 20:15:24 54° E 20:15:46 56° ENE 20:21:01 10° N
Cosmos 2333 Rocket 3.2 20:11:08 10° NW 20:16:30 43° WSW 20:19:49 22° SSW
Cosmos 1892 Rocket 3.8 20:17:21 10° NNW 20:21:48 68° W 20:22:19 61° SW
NOSS 3-4 (A) 3.9 20:15:21 10° NW 20:22:25 80° SW 20:25:09 43° SSE
NOSS 3-4 (C) 3.8 20:15:27 10° NW 20:22:30 80° SW 20:25:14 44° SSE
SL-24 R/B 4.2 20:22:05 65° SSW 20:22:34 73° WSW 20:27:17 10° NNW
Cosmos 614 Rocket 3.9 20:19:50 10° NNW 20:25:06 84° WSW 20:25:42 70° S
Cosmos 1954 Rocket 4.2 20:25:55 10° NNW 20:30:43 57° NE 20:30:43 57° NE
Spot 2 Rocket 3.3 20:34:29 86° NNE 20:34:29 86° NNE 20:39:29 10° NNW
Cosmos 2237 Rocket 2.2 20:28:42 10° NNW 20:34:25 78° WSW 20:35:08 67° S
Meteor 1-22 Rocket 4.3 20:36:06 64° E 20:36:06 64° E 20:41:53 10° NNE
NOSS 0 Rocket 4.4 20:29:51 10° NW 20:35:53 56° WSW 20:37:47 40° SSW
ERS-1 Rocket 4.0 20:40:20 35° NNE 20:40:20 35° NNE 20:43:47 10° N
SL-08 R/B 4.4 20:33:21 10° N 20:39:51 74° E 20:40:25 70° ESE
Cosmos 2181 Rocket 4.3 20:35:31 16° SSW 20:40:29 65° W 20:46:46 10° N
H-2A R/B 3.6 20:37:49 18° SW 20:40:34 30° W 20:44:57 10° NNW
USA 234 4.4 20:39:21 25° ENE 20:42:13 35° NNE 20:48:03 10° NW
Cosmos 1980 3.9 20:37:09 10° NNW 20:42:44 63° WSW 20:43:21 59° SW
Cosmos 1371 Rocket 4.4 20:38:24 10° SSW 20:43:38 63° WNW 20:48:58 10° NNE
Cosmos 1140 Rocket 3.6 20:41:43 10° NNW 20:46:33 73° WNW 20:46:33 73° WNW
BREEZE-M DEB (TANK) 4.4 20:46:45 10° WNW 20:53:43 40° WSW 20:53:43 40° WSW
USA 245 4.4 20:55:43 87° SE 20:55:50 89° E 21:02:00 10° NNW
Cosmos 676 Rocket 4.4 20:55:17 10° NNW 20:59:45 61° NW 20:59:45 61° NW
SL-16 R/B 2.6 20:56:28 10° NNW 21:01:11 58° N 21:01:11 58° N
ATLAS 2AS CENTAUR R/B 4.0 20:59:13 10° NW 21:05:40 32° WSW 21:07:59 26° SW
Resurs 01 Rocket 3.6 21:09:52 23° W 21:10:02 23° W 21:13:34 10° NW
Terra 3.7 21:14:13 24° N 21:14:13 24° N 21:16:16 10° N
Cosmos 1821 Rocket 4.3 21:13:43 10° N 21:18:37 57° N 21:18:37 57° N
CZ-2C R/B 3.6 21:29:05 10° N 21:33:43 47° NW 21:33:43 47° NW
Cosmos 2227 Rocket 3.2 21:37:14 42° NW 21:37:14 42° NW 21:42:25 10° NNE
Cosmos 2297 Rocket 3.6 21:48:00 33° WNW 21:48:37 34° NW 21:53:46 10° N
USA 234 4.1 22:26:41 45° NNW 22:26:41 45° NNW 22:31:07 10° NW
CZ-4C R/B 4.4 22:34:31 10° NNW 22:40:03 26° NNE 22:41:03 25° NE
Cosmos 2263 Rocket 4.5 23:56:17 19° N 23:56:17 19° N 23:58:15 10° N
